Regional Weather Roundup
Issued by NWS Charleston, WV

Home | Current Version | Previous Version | Graphics & Text | Print | Product List | Glossary On
Versions: 1 2 3 4 5 6 7 8 9 10 11 12 13 14 15 16 17 18 19 20 21 22 23 24 25 26 27
000
ASUS41 KRLX 200710
RWRRLX
West Virginia Regional Weather Roundup
National Weather Service Charleston WV
300 AM EDT SUN APR 20 2014

Note: "fair" indicates few or no clouds below 12,000 feet with no
significant weather and/or obstructions to visibility.

WVZ003-200800-
Northern Panhandle of West Virginia

CITY           SKY/WX    TMP DP  RH WIND       PRES   REMARKS
WHEELING       PTCLDY    47  27  45 NE5       30.27F
$$

WVZ009-200800-
Northwest West Virginia

CITY           SKY/WX    TMP DP  RH WIND       PRES   REMARKS
PARKERSBURG    PTCLDY    47  31  53 NE5       30.27F
$$

WVZ006-200800-
Western West Virginia

CITY           SKY/WX    TMP DP  RH WIND       PRES   REMARKS
HUNTINGTON     PTCLDY    53  32  44 N5        30.21F
$$

WVZ015-200800-
West Central West Virginia

CITY           SKY/WX    TMP DP  RH WIND       PRES   REMARKS
CHARLESTON     MOCLDY    49  38  65 CALM      30.21F
$$

WVZ031-200800-
North Central West Virginia

CITY           SKY/WX    TMP DP  RH WIND       PRES   REMARKS
CLARKSBURG     MOCLDY    45  26  47 CALM      30.27S
MORGANTOWN     MOCLDY    52  22  30 VRB3      30.28F
$$

WVZ035-042-045-200800-
South Central West Virginia

CITY           SKY/WX    TMP DP  RH WIND       PRES   REMARKS
BECKLEY        MOCLDY    50  37  61 SE12      30.24F
BLUEFIELD      MOCLDY    51  37  58 VRB3      30.25F
LEWISBURG      CLOUDY    44  35  68 N5        30.26F
$$

WVZ047-200800-
Northern Mountains of West Virginia

CITY           SKY/WX    TMP DP  RH WIND       PRES   REMARKS
ELKINS         MOCLDY    35  30  82 CALM      30.28F
$$

WVZ052-200800-
Eastern Panhandle of West Virginia

CITY           SKY/WX    TMP DP  RH WIND       PRES   REMARKS
MARTINSBURG    CLOUDY    48  26  42 N5        30.33S
PETERSBURG     CLOUDY    42  39  88 CALM      30.33S
$$



USA.gov is the U.S. government's official web portal to all federal, state and local government web resources and services.